Retour au catalogue

DELTA 1 DEB

ActifSSO
NORAD 21470·DEBRIS·🇺🇸 United States

Lancé Jun 12, 1975 depuis Vandenberg Space Force Base

Loading…

Prochains Passages (prochaines 24 heures)

TLE

FraisSource: Space-Track

Époque: Sep 13, 2026, 09:31 UTC

1 21470U 75052FE  26256.39674818  .00000116  00000-0  24213-3 0  9993
2 21470  99.7253  61.5330 0099080  48.2675  20.5980 13.50037621738759

Suivez DELTA 1 DEB en temps réel avec AllMySat

Download on the App Store